Location: Stockholm
(59.3293°N, 18.0686°E)
Time: 18:14:32
(UTC+02:00)

ISS - Pass Details

Date: 25 March 2019
Orbit: 408 x 410 km, 51.6° (Epoch: 20 April)

Event Time Altitude Azimuth Distance (km) Brightness Sun altitude
Rises 20:15:30 0° 234° (SW) 2,336 0.3 -15.5°
Reaches altitude 10° 20:17:57 10° 216° (SW) 1,475 -1.0 -15.7°
Enters shadow 20:19:41 18° 186° (S) 1,083 -1.9 -15.9°
